Change the Weather History Date:

Thursday, November 17, 2011

  Actual Average Record
Temperature  
Mean Temperature 24 °F -  
Max Temperature 33 °F 38 °F 69 °F (2001)
Min Temperature 17 °F 23 °F 6 °F (1997)
Degree Days  
Heating Degree Days 40    
Moisture  
Dew Point 13 °F    
Average Humidity 66    
Maximum Humidity 86    
Minimum Humidity 43    
Precipitation  
Precipitation 0.00 in - - ()
Sea Level Pressure  
Sea Level Pressure 30.07 in    
Wind  
Wind Speed 8 mph (WSW)    
Max Wind Speed 12 mph    
Max Gust Speed -    
Visibility 10 miles    
Events      
Averages and records for this station are not official NWS values.
T = Trace of Precipitation, MM = Missing Value Source: NWS Daily Summary

Daily Weather History Graph

Daily Weather History Graph

Search for Another Location

Airport or City:

Trip Planner

Search our weather history database for the weather conditions in past years. The results will help you decide how hot, cold, wet, or windy it might be!

Date:

Astronomy

Nov. 17, 2011 Rise Set
Actual Time 7:13 AM CST 4:41 PM CST
Civil Twilight 6:41 AM CST 5:13 PM CST
Nautical Twilight 6:05 AM CST 5:49 PM CST
Astronomical Twilight 5:30 AM CST 6:24 PM CST
Moon 11:09 PM CST (11/17) 12:17 PM CST (11/17)
Length of Visible Light 10h 32m
Length of Day
9h 28m
Waning Gibbous, 59% of the Moon is Illuminated
Nov 17
Waning Gibbous
Nov 18
Last Quarter
Nov 25
New
Dec 2
First Quarter
Dec 10
Full

Hourly Weather History & Observations

Time (CST) Temp. Windchill Dew Point Humidity Pressure Visibility Wind Dir Wind Speed Gust Speed Precip Events Conditions
12:14 AM 24.8 °F 14.6 °F 12.2 °F 59% 30.11 in 10.0 mi West 10.4 mph - N/A   Clear
12:33 AM 23.0 °F 12.4 °F 12.2 °F 63% 30.11 in 10.0 mi West 10.4 mph - N/A   Clear
12:54 AM 21.2 °F 10.9 °F 14.0 °F 74% 30.11 in 10.0 mi West 9.2 mph - N/A   Clear
1:14 AM 23.0 °F 13.1 °F 14.0 °F 68% 30.11 in 10.0 mi West 9.2 mph - N/A   Mostly Cloudy
1:34 AM 21.2 °F 10.9 °F 14.0 °F 74% 30.11 in 10.0 mi West 9.2 mph - N/A   Overcast
1:54 AM 21.2 °F 11.7 °F 14.0 °F 74% 30.11 in 10.0 mi West 8.1 mph - N/A   Overcast
2:14 AM 23.0 °F 13.1 °F 15.8 °F 74% 30.11 in 10.0 mi West 9.2 mph - N/A   Overcast
2:33 AM 23.0 °F 13.9 °F 15.8 °F 74% 30.12 in 10.0 mi West 8.1 mph - N/A   Overcast
2:54 AM 23.0 °F 13.1 °F 15.8 °F 74% 30.12 in 10.0 mi West 9.2 mph - N/A   Overcast
3:14 AM 21.2 °F 9.5 °F 15.8 °F 80% 30.12 in 10.0 mi West 11.5 mph - N/A   Overcast
3:33 AM 21.2 °F 9.5 °F 15.8 °F 80% 30.12 in 10.0 mi West 11.5 mph - N/A   Overcast
3:54 AM 19.4 °F 10.4 °F 15.8 °F 86% 30.12 in 10.0 mi West 6.9 mph - N/A   Scattered Clouds
4:14 AM 19.4 °F 11.5 °F 15.8 °F 86% 30.12 in 10.0 mi WSW 5.8 mph - N/A   Clear
4:34 AM 19.4 °F 10.4 °F 15.8 °F 86% 30.12 in 10.0 mi West 6.9 mph - N/A   Clear
4:54 AM 19.4 °F 10.4 °F 15.8 °F 86% 30.13 in 10.0 mi West 6.9 mph - N/A   Clear
5:14 AM 17.6 °F 7.3 °F 14.0 °F 86% 30.13 in 10.0 mi WSW 8.1 mph - N/A   Clear
5:34 AM 17.6 °F 9.3 °F 14.0 °F 86% 30.14 in 10.0 mi WSW 5.8 mph - N/A   Clear
5:54 AM 17.6 °F 8.2 °F 14.0 °F 86% 30.14 in 10.0 mi WSW 6.9 mph - N/A   Clear
6:13 AM 17.6 °F 9.3 °F 14.0 °F 86% 30.14 in 10.0 mi WSW 5.8 mph - N/A   Clear
6:34 AM 17.6 °F 9.3 °F 14.0 °F 86% 30.14 in 10.0 mi WSW 5.8 mph - N/A   Clear
6:45 AM 17.6 °F 9.3 °F 14.0 °F 86% 30.14 in 10.0 mi WSW 5.8 mph - N/A   Clear
7:50 AM 17.6 °F 8.2 °F 14.0 °F 86% 30.15 in 10.0 mi WSW 6.9 mph - N/A   Clear
8:45 AM 19.4 °F 8.6 °F 14.0 °F 80% 30.15 in 10.0 mi WSW 9.2 mph - N/A   Clear
9:50 AM 23.0 °F 13.9 °F 15.8 °F 74% 30.17 in 10.0 mi West 8.1 mph - N/A   Partly Cloudy
10:45 AM 24.8 °F 15.3 °F 15.8 °F 69% 30.16 in 10.0 mi West 9.2 mph - N/A   Partly Cloudy
11:45 AM 26.6 °F 20.0 °F 14.0 °F 59% 30.14 in 10.0 mi WSW 5.8 mph - N/A   Clear
12:55 PM 28.4 °F 19.7 °F 10.4 °F 47% 30.11 in 10.0 mi West 9.2 mph - N/A   Clear
2:50 PM 30.2 °F 23.4 °F 10.4 °F 44% 30.08 in 10.0 mi WSW 6.9 mph - N/A   Clear
3:50 PM 28.4 °F 24.6 °F 8.6 °F 43% 30.07 in 10.0 mi SW 3.5 mph - N/A   Clear
4:45 PM 28.4 °F - 10.4 °F 47% 30.05 in 10.0 mi Calm Calm - N/A   Clear
5:45 PM 28.4 °F 24.6 °F 10.4 °F 47% 30.03 in 10.0 mi ESE 3.5 mph - N/A   Clear
7:45 PM 30.2 °F 24.3 °F 10.4 °F 44% 30.01 in 12.0 mi SE 5.8 mph - N/A   Overcast
8:45 PM 28.4 °F 21.2 °F 10.4 °F 47% 29.97 in 12.0 mi ESE 6.9 mph - N/A   Overcast
9:14 PM 30.2 °F 22.6 °F 10.4 °F 44% 29.96 in 10.0 mi ESE 8.1 mph - N/A   Mostly Cloudy
9:35 PM 30.2 °F 23.4 °F 10.4 °F 44% 29.94 in 10.0 mi ESE 6.9 mph - N/A   Mostly Cloudy
9:54 PM 30.2 °F 21.9 °F 10.4 °F 44% 29.92 in 10.0 mi ESE 9.2 mph - N/A   Mostly Cloudy
10:34 PM 30.2 °F 21.9 °F 12.2 °F 47% 29.88 in 10.0 mi ESE 9.2 mph - N/A   Mostly Cloudy
10:54 PM 30.2 °F 21.9 °F 12.2 °F 47% 29.87 in 10.0 mi ESE 9.2 mph - N/A   Mostly Cloudy
11:15 PM 32.0 °F 24.2 °F 12.2 °F 44% 29.85 in 10.0 mi ESE 9.2 mph - N/A   Mostly Cloudy
11:34 PM 32.0 °F 23.6 °F 12.2 °F 44% 29.83 in 10.0 mi SE 10.4 mph - N/A   Mostly Cloudy
11:54 PM 33.8 °F 25.3 °F 14.0 °F 44% 29.82 in 10.0 mi SE 11.5 mph - N/A   Overcast